カタログに戻る

COSMOS 2344 DEB

運用中UNKNOWN
NORAD 24843·DEBRIS·🇷🇺 Russia

打ち上げ Jun 6, 1997 から Baikonur Cosmodrome

Loading…

次のパス (今後24時間)

TLE

最新Source: Space-Track

元期: Sep 14, 2026, 07:58 UTC

1 24843U 97028G   26257.33195587 -.00000115  00000-0 -73045-3 0  9991
2 24843  63.3209  21.2860 1077785  46.9865 344.3225 11.10065567184354

AllMySatでCOSMOS 2344 DEBをリアルタイム追跡

Download on the App Store